Weather History for De Queen, AR

Change the Weather History Date:

Sunday, December 9, 2012

  Actual Average Record
Temperature  
Mean Temperature 63 °F 44 °F  
Max Temperature 77 °F 56 °F 77 °F (1943)
Min Temperature 48 °F 31 °F 10 °F (2005)
Degree Days  
Heating Degree Days 2 21  
Month to date heating degree days 46 183  
Since 1 July heating degree days 603 709  
Cooling Degree Days 0 0  
Month to date cooling degree days 14 0  
Year to date cooling degree days 2185 1941  
Growing Degree Days 12 (Base 50)    
Moisture  
Dew Point 57 °F    
Average Humidity 75    
Maximum Humidity 97    
Minimum Humidity 53    
Precipitation  
Precipitation 0.00 in 0.13 in 2.82 in (1980)
Month to date precipitation 0.01 1.09  
Year to date precipitation 24.70 45.72  
Snow  
Snow 0.00 in - - ()
Month to date snowfall 0.0  
Since 1 July snowfall 0.0  
Snow Depth 0.00 in    
Sea Level Pressure  
Sea Level Pressure 29.79 in    
Wind  
Wind Speed 8 mph (WSW)    
Max Wind Speed 21 mph    
Max Gust Speed 27 mph    
Visibility 8 miles    
Events      
T = Trace of Precipitation, MM = Missing Value Source: NWS Daily Summary

Daily Weather History Graph

Daily Weather History Graph

Search for Another Location

Airport:

Trip Planner

Search our weather history database for the weather conditions in past years. The results will help you decide how hot, cold, wet, or windy it might be!

Date:

Astronomy

Dec. 09, 2012 Rise Set
Actual Time 7:11 AM CST 5:08 PM CST
Civil Twilight 6:44 AM CST 5:36 PM CST
Nautical Twilight 6:13 AM CST 6:07 PM CST
Astronomical Twilight 5:42 AM CST 6:37 PM CST
Moon 2:53 AM CST (12/9) 2:08 PM CST (12/9)
Length of Visible Light 10h 51m
Length of Day
9h 56m
Waning Crescent, 18% of the Moon is Illuminated
Dec 9
Waning Crescent
Dec 13
New
Dec 19
First Quarter
Dec 28
Full
Jan 4
Last Quarter

Hourly Weather History & Observations

Time (CST) Temp. Dew Point Humidity Pressure Visibility Wind Dir Wind Speed Gust Speed Precip Events Conditions
12:53 AM 61.0 °F 59.0 °F 93% 29.78 in 5.0 mi South 3.5 mph - N/A   Mostly Cloudy
1:53 AM 64.9 °F 62.1 °F 90% 29.76 in 8.0 mi South 4.6 mph - N/A   Partly Cloudy
2:33 AM 64.0 °F 62.1 °F 93% 29.77 in 8.0 mi SW 4.6 mph - N/A   Mostly Cloudy
2:53 AM 62.1 °F 61.0 °F 96% 29.76 in 6.0 mi Calm Calm - N/A   Overcast
3:53 AM 64.9 °F 63.0 °F 93% 29.76 in 6.0 mi SW 4.6 mph - N/A   Overcast
4:53 AM 66.0 °F 63.0 °F 90% 29.76 in 6.0 mi Variable 4.6 mph - N/A   Overcast
5:22 AM 66.0 °F 63.0 °F 90% 29.78 in 8.0 mi SW 6.9 mph - N/A   Overcast
5:39 AM 66.9 °F 63.0 °F 87% 29.78 in 6.0 mi SSW 4.6 mph - N/A   Overcast
5:53 AM 66.9 °F 64.0 °F 90% 29.77 in 6.0 mi SSW 5.8 mph - N/A   Overcast
6:50 AM 69.8 °F 64.4 °F 83% 29.79 in 7.0 mi SW 6.9 mph - N/A   Overcast
6:53 AM 69.1 °F 64.0 °F 84% 29.78 in 7.0 mi SSW 8.1 mph - N/A   Overcast
7:53 AM 69.1 °F 64.0 °F 84% 29.78 in 6.0 mi South 8.1 mph - N/A   Haze
8:53 AM 70.0 °F 64.0 °F 81% 29.78 in 6.0 mi South 9.2 mph - N/A   Haze
9:53 AM 72.0 °F 64.0 °F 76% 29.79 in 5.0 mi SW 16.1 mph 23.0 mph N/A   Haze
10:25 AM 73.0 °F 64.0 °F 73% 29.80 in 5.0 mi SW 15.0 mph 25.3 mph N/A   Haze
10:53 AM 73.0 °F 63.0 °F 71% 29.78 in 5.0 mi SW 9.2 mph 19.6 mph N/A   Haze
11:53 AM 75.0 °F 62.1 °F 64% 29.75 in 8.0 mi SW 12.7 mph 24.2 mph N/A   Scattered Clouds
12:53 PM 75.9 °F 59.0 °F 56% 29.72 in 10.0 mi SW 13.8 mph 24.2 mph N/A   Scattered Clouds
1:53 PM 75.9 °F 57.9 °F 54% 29.71 in 10.0 mi WSW 12.7 mph 27.6 mph N/A   Partly Cloudy
2:53 PM 75.0 °F 60.1 °F 60% 29.72 in 9.0 mi SW 9.2 mph - N/A   Mostly Cloudy
4:53 PM 69.1 °F 55.0 °F 61% 29.75 in 10.0 mi NW 10.4 mph - N/A   Mostly Cloudy
5:53 PM 60.1 °F 48.9 °F 67% 29.80 in 10.0 mi NNW 9.2 mph - N/A   Clear
6:53 PM 55.9 °F 46.0 °F 69% 29.83 in 10.0 mi NW 6.9 mph - N/A   Scattered Clouds
7:53 PM 53.1 °F 45.0 °F 74% 29.84 in 9.0 mi NW 4.6 mph - N/A   Clear
8:53 PM 51.1 °F 44.1 °F 77% 29.86 in 10.0 mi North 3.5 mph - N/A   Clear
9:53 PM 50.0 °F 43.0 °F 77% 29.86 in 10.0 mi NW 4.6 mph - N/A   Clear
10:53 PM 50.0 °F 42.1 °F 74% 29.89 in 10.0 mi NNW 4.6 mph - N/A   Mostly Cloudy
11:53 PM 48.0 °F 37.9 °F 68% 29.91 in 10.0 mi NW 9.2 mph - N/A   Overcast